Weather Roundup
Issued by NWS Chicago, IL

Home | Current Version | Previous Version | Graphics & Text | Print | Product List | Glossary On
Versions: 1 2 3 4 5 6 7 8 9 10 11 12 13 14 15 16 17 18 19 20 21 22 23 24 25 26 27 28 29 30 31 32 33 34 35 36 37 38 39 40 41 42 43 44 45 46 47 48 49 50
000
NZUS59 KLOT 262121
HRRLOT

CHICAGO AREA WEATHER ROUNDUP
NATIONAL WEATHER SERVICE CHICAGO/ROMEOVILLE IL
400 PM CDT TUE MAY 26 2015

NOTE: "FAIR" INDICATES FEW OR NO CLOUDS BELOW 12,000 FEET WITH NO
SIGNIFICANT WEATHER AND/OR OBSTRUCTIONS TO VISIBILITY.

* THESE STATIONS ARE NOT UNDER NWS QUALITY CONTROL. THEY ALSO MAY NOT
  REPORT WEATHER SUCH AS PRECIPITATION OR FOG.

ILZ005-006-012>014-019>023-262200-
NORTHEAST ILLINOIS

CITY           SKY/WX    TMP DP  RH WIND       PRES   REMARKS
OHARE          PTSUNNY   73  63  70 S17       29.76F
MIDWAY         PTSUNNY   77  65  66 SW14      29.77F
AURORA         PTSUNNY   75  62  64 S20G29    29.76F
LANSING*       CLOUDY    74  63  69 SW17      29.81F
JOLIET*        MOSUNNY   78  67  70 SW10G20   29.78F HX  80
WAUKEGAN       PTSUNNY   75  63  66 S16G25    29.73F
DUPAGE AIRPORT PTSUNNY   75  64  68 S13G23    29.75F
WHEELING       PTSUNNY   75  63  66 S17G25    29.76F
KANKAKEE*      RAIN      73  65  77 SW20G30   29.83R
MORRIS*        PTSUNNY   75  63  65 SW18G31   29.77S
LEWIS AIRPORT* MOSUNNY   75  65  70 SW18G29   29.77F
NORTHERLY IS     N/A     73  61  65 S21         N/A
$$

WIZ051-052-058>065-066-070>072-262200-
SOUTHEAST WISCONSIN

CITY           SKY/WX    TMP DP  RH WIND       PRES   REMARKS
MILWAUKEE      PTSUNNY   74  63  68 SW20G28   29.71F
KENOSHA*       PTSUNNY   75  63  66 SW18G26   29.73F
RACINE*        PTSUNNY   75  63  66 SW12G29   29.74F
BURLINGTON     PTSUNNY   74  63  69 SW14G26   29.72F
WAUKESHA       PTSUNNY   73  63  68 S22G29    29.72F
WEST BEND      CLOUDY    70  64  83 S12       29.70F
$$

INZ001>003-010>013-019-020-262200-
NORTHWEST INDIANA

CITY           SKY/WX    TMP DP  RH WIND       PRES   REMARKS
GARY*          PTSUNNY   75  64  69 S8        29.81F
MICHIGAN CITY* NOT AVBL
RENSSELAER*    NOT AVBL
VALPARAISO     PTSUNNY   74  64  71 SW17G25   29.83F
$$

LMZ740>746-262200-
SOUTHERN LAKE MICHIGAN

STATION/POSITION TIME  SKY/WX   TEMP WIND        PRES    VSBY
                                AIR  DIR/SP/G
                 (UTC)          (F)  (DEG/KT/KT) (MB)    (MI)
HARRISON CRIB    2100            70  200/ 21/ 25   N/A
BURNHAM HARBOR   2100            74  180/ 14/ 22   N/A
CALUMET HARBOR   2100            73  180/  8/ 12   N/A
BURNS HARBOR     2000            69  200/ 15/ 19 1010.2S
MICHIGAN CITY    2100            71  180/ 19/ 24   N/A
$$

ABBREVIATIONS USED IN REMARKS
   TC - TEMPERATURE IN CELSIUS
  WCI - WIND CHILL INDEX
   HX - HEAT INDEX
  VSB - VISIBILITY
$$


USA.gov is the U.S. government's official web portal to all federal, state and local government web resources and services.